Yakima, WA
on Friday, December 7, 2012

Friday
Previous Day Next Day
Daily Summary
 ActualAverageRecord
Temperature
Mean Temperature °F 30°F  
Max Temperature 50°F 37°F 58°F (1973)
Min Temperature 28°F 22°F -2°F (1956)
Degree Days
Heating Degree Days 26 35  
Month to date heating degree days 151 240  
Since 1 July heating degree days 1389 1773  
Cooling Degree Days 0 0  
Month to date cooling degree days 0 0  
Year to date cooling degree days 667 472  
Moisture
Dew Point 28°F   
Average Humidity 66    
Maximum Humidity 92    
Minimum Humidity 40    
Precipitation
Precipitation 0.00 in 0.04 in 0.53 in (1996)
Month to date precipitation 0.74 0.34  
Year to date precipitation 7.93 7.06  
Snow
Snow 0.00 in 0.30 in 4.60 in (1948)
Month to date snowfall 0.0 2.0  
Year to date snowfall 22.2 14.2  
Since 1 July snowfall 0.7 5.6  
Snow Depth 0.00 in   
Wind
Wind Speed 7 mph   
Max Wind Speed 32 mph   
Max Gust Speed 40 mph   
Visibility 9 miles   
Events     

Key: T is trace of precipitation, MM is missing value
Source: NWS Daily Summary
Time(PST)TemperatureDew PointHumidity Pressure Visibility Wind DirectionWind SpeedGust SpeedPrecipitationEvents Conditions
12:53 AM 28.9°F 25.0°F 85% 30.10 in 9.0 miles Calm Calm - N/A   Clear
1:53 AM 30.0°F 27.0°F 88% 30.09 in 7.0 miles Calm Calm - N/A   Clear
2:53 AM 30.9°F 27.0°F 85% 30.08 in 8.0 miles NW 4.6 mph - N/A   Clear
3:53 AM 28.9°F 27.0°F 92% 30.07 in 7.0 miles West 3.5 mph - N/A   Clear
4:53 AM 30.9°F 28.0°F 89% 30.06 in 8.0 miles Calm Calm - N/A   Clear
5:53 AM 30.9°F 28.0°F 89% 30.04 in 9.0 miles Calm Calm - N/A   Clear
6:53 AM 28.9°F 26.1°F 89% 30.02 in 8.0 miles NW 3.5 mph - N/A   Clear
7:53 AM 30.0°F 27.0°F 88% 30.00 in 8.0 miles Calm Calm - N/A   Clear
8:53 AM 33.1°F 30.0°F 89% 29.98 in 9.0 miles Calm Calm - N/A   Clear
9:53 AM 37.0°F 30.9°F 79% 29.98 in 10.0 miles SW 3.5 mph - N/A   Clear
10:53 AM 41.0°F 33.1°F 73% 29.94 in 10.0 miles Calm Calm - N/A   Clear
11:53 AM 45.0°F 34.0°F 65% 29.91 in 10.0 miles NNE 4.6 mph - N/A   Partly Cloudy
12:53 PM 48.0°F 36.0°F 63% 29.89 in 10.0 miles Calm Calm - N/A   Partly Cloudy
1:53 PM 48.0°F 33.1°F 56% 29.89 in 10.0 miles WNW 12.7 mph - N/A   Scattered Clouds
2:53 PM 46.0°F 34.0°F 63% 29.90 in 10.0 miles NW 3.5 mph - N/A   Partly Cloudy
3:53 PM 46.9°F 28.0°F 48% 29.92 in 10.0 miles West 26.5 mph 35.7 mph N/A   Scattered Clouds
4:53 PM 45.0°F 21.9°F 40% 29.94 in 10.0 miles West 23.0 mph 33.4 mph N/A   Scattered Clouds
5:53 PM 44.1°F 23.0°F 43% 29.98 in 10.0 miles WNW 23.0 mph 31.1 mph N/A   Clear
6:53 PM 41.0°F 27.0°F 57% 30.02 in 10.0 miles NW 11.5 mph - N/A   Clear
7:53 PM 37.9°F 28.0°F 68% 30.04 in 10.0 miles NNW 6.9 mph - N/A   Clear
8:53 PM 39.9°F 26.1°F 58% 30.05 in 10.0 miles WNW 12.7 mph - N/A   Clear
9:53 PM 41.0°F 24.1°F 51% 30.06 in 10.0 miles West 11.5 mph - N/A   Clear
10:53 PM 39.9°F 23.0°F 51% 30.07 in 10.0 miles WNW 8.1 mph - N/A   Clear
11:53 PM 37.0°F 24.1°F 59% 30.09 in 10.0 miles West 3.5 mph - N/A   Clear
Moon Phase
Dec. 07 Dec. 13 Dec. 20 Dec. 28 Jan. 04
Sunrise:07:32 AM (PST) Moon Rise:12:37 AM (PST)12/7
Sunset:04:14 PM (PST) Moon Set:12:32 PM (PST)12/7

Copyright © 2014 The Weather Underground, Inc.